Regional Weather Roundup
Issued by NWS

Home | Current Version | Previous Version | Graphics & Text | Print | Product List | Glossary On
Versions: 1 2 3 4 5 6 7 8 9 10 11 12 13 14 15 16 17 18 19 20 21 22 23 24 25 26 27 28 29 30 31 32 33 34 35 36 37 38 39 40 41 42 43 44 45 46 47 48 49 50
486
ASUS43 KMPX 241710
RWRMN
WEATHER ROUNDUP FOR MINNESOTA
NATIONAL WEATHER SERVICE TWIN CITIES/CHANHASSEN MN
1200 PM CDT FRI MAR 24 2017


NOTE: "FAIR" INDICATES FEW OR NO CLOUDS BELOW 12,000 FEET WITH NO
SIGNIFICANT WEATHER AND/OR OBSTRUCTIONS TO VISIBILITY. N/A MEANS
CURRENT SKY AND/OR WEATHER CONDITIONS ARE NOT AVAILABLE.

MNZ060>063-068>070-241800-
   Twin Cities Metro

CITY           SKY/WX    TMP DP  RH WIND       PRES   REMARKS
TWIN CITIES    CLOUDY    40  35  83 NE13      30.02R
ST PAUL        CLOUDY    41  37  86 N10       30.04R
CRYSTAL        CLOUDY    40  33  76 NE12      30.02R
BLAINE         CLOUDY    41  39  93 N10       30.03R
LAKEVILLE      CLOUDY    37  37 100 N13       30.00S
EDEN PRAIRIE   CLOUDY    42  36  79 NE12      30.00R
SOUTH ST PAUL  CLOUDY    39  37  91 N9        30.02R
LAKE ELMO      CLOUDY    37  36  93 N7        30.04R
$$
MNZ001>005-007-008-013>017-022>024-027-028-241800-
   Northwest Minnesota

CITY           SKY/WX    TMP DP  RH WIND       PRES   REMARKS
BEMIDJI        CLOUDY    35  31  87 N8        30.11R WCI  28
HALLOCK        CLOUDY    34  28  80 N10       30.20R WCI  26
ROSEAU         MOSUNNY   36  28  75 N12       30.17R
WARROAD        PTSUNNY   36  27  69 N12       30.17R
THIEF RVR FALL CLOUDY    35  27  72 N14       30.17R WCI  26
CROOKSTON      CLOUDY    34  30  86 N12       30.19R WCI  25
FOSSTON        CLOUDY    36  32  87 N8        30.14R
DETROIT LAKES  CLOUDY    37  34  87 N7        30.13R
MOORHEAD       PTSUNNY   37  30  75 N14       30.16R
PARK RAPIDS    CLOUDY    38  29  70 N9        30.09R
MAHNOMEN       CLOUDY    33  30  87 N10       30.13R WCI  25
$$
MNZ006-009>011-018-025>026-241800-
   North Central Minnesota

CITY           SKY/WX    TMP DP  RH WIND       PRES   REMARKS
BAUDETTE       MOSUNNY   37  26  64 N10G20    30.12R
FLAG ISLAND    CLOUDY    32  23  69 N12       30.16R WCI  23
INTL FALLS     CLOUDY    38  29  70 NE7       30.10R
WASKISH        CLOUDY    39  30  70 MISG      30.12R
BIG FORK       CLOUDY    37  34  87 N6        30.09R
LONGVILLE      CLOUDY    36  36 100 N3        30.09R
GRAND RAPIDS   CLOUDY    37  33  85 VRB7      30.10R
CRANE LAKE     CLOUDY    36  32  87 NE6       30.10R
ORR            CLOUDY    36  30  80 CALM      30.07R
COOK           CLOUDY    36  34  93 N6        30.08R
WALKER         CLOUDY    37  32  83 N8        30.09R
$$
MNZ012-019>021-037-241800-
   Northeast Minnesota

CITY           SKY/WX    TMP DP  RH WIND       PRES   REMARKS
DULUTH         CLOUDY    35  33  92 N8        30.05R FOG     WCI  29
ELY            CLOUDY    36  34  93 CALM      30.06R FOG
HIBBING        CLOUDY    34  32  92 N7        30.07R WCI  28
EVELETH        CLOUDY    35  32  90 N5        30.08R FOG     WCI  31
DULUTH HARBOR  CLOUDY    37  36  93 CALM      30.09R
TWO HARBORS    CLOUDY    39  34  81 NE5       30.04R
SILVER BAY     CLOUDY    37  34  87 NE6       30.04R
GRAND MARAIS     N/A     39  33  79 VRB3      30.06R
G MARAIS ARPRT CLOUDY    34  28  80 N7        30.03R WCI  28
$$
MNZ029>031-032-039>041-046>048-054>057-064-241800-
   West Central Minnesota

CITY           SKY/WX    TMP DP  RH WIND       PRES   REMARKS
FERGUS FALLS   CLOUDY    39  34  81 N10       30.17R
WHEATON        CLOUDY    37  34  87 NW12G17   30.16R
MORRIS         CLOUDY    37  36  93 N10       30.11R
ALEXANDRIA     CLOUDY    36  34  92 N9        30.09R
ELBOW LAKE     CLOUDY    37  33  87 N8        30.12R FOG
WADENA         CLOUDY    36  34  93 N8        30.10R
GLENWOOD       CLOUDY    37  34  87 N10       30.09R
APPLETON       CLOUDY    39  36  87 N14       30.10R
BENSON         CLOUDY    41  34  75 NE14      30.11R
ORTONVILLE     CLOUDY    36  34  93 N14       30.12R
MADISON        CLOUDY    41  41 100 N15       30.09S
WILLMAR        CLOUDY    43  37  81 N12       30.08R
$$
MNZ033>034-036-042>043-049>051-058-059-241800-
   Central Minnesota

CITY           SKY/WX    TMP DP  RH WIND       PRES   REMARKS
ST CLOUD       CLOUDY    40  35  83 N13       30.06R
SAUK CENTRE    CLOUDY    36  33  89 N13       30.08R
PAYNESVILLE      N/A     39  38  97 N12G20    30.06R
AITKIN         CLOUDY    39  32  75 N9G16     30.07R
PINE RIVER     CLOUDY    37  32  81 N9        30.12R
BRAINERD       CLOUDY    37  33  85 N6        30.09R
STAPLES        CLOUDY    34  34 100 N7        30.10R WCI  28
LONG PRAIRIE   CLOUDY    34  32  93 NW10      30.08R WCI  26
LITTLE FALLS   CLOUDY    36  34  93 N6        30.09R
LITCHFIELD     CLOUDY    43  37  81 N10       30.05R
BUFFALO        CLOUDY    42  36  78 N10       30.04R
MAPLE LAKE     CLOUDY    43  38  84 N13       30.04R
HUTCHINSON     CLOUDY    41  37  87 N7        30.05R
$$
MNZ037-044-045-052-053-241800-
   East Central Minnesota

CITY           SKY/WX    TMP DP  RH WIND       PRES   REMARKS
PRINCETON      CLOUDY    43  37  81 NW15      30.05R
MORA           CLOUDY    37  32  81 N6        30.07R
CAMBRIDGE      CLOUDY    45  34  65 N7        30.03R
RUSH CITY      CLOUDY    42  36  79 N12       30.05R
MOOSE LAKE     CLOUDY    36  32  87 N9        30.06R
HINCKLEY       CLOUDY    39  36  87 N8        30.06R
CLOQUET        CLOUDY    36  32  87 N5        30.06R FOG
MCGREGOR       CLOUDY    36  34  93 N8        30.07R
$$
MNZ071>073-080-081-089-090-097-098-241800-
   Southwest Minnesota

CITY           SKY/WX    TMP DP  RH WIND       PRES   REMARKS
MONTEVIDEO     CLOUDY    41  37  87 N14       30.09S
GRANITE FALLS  CLOUDY    43  38  82 N16G22    30.06F
CANBY          CLOUDY    40  37  90 N14G22    30.06F
MARSHALL       CLOUDY    39  37  93 N21       30.02F
REDWOOD FALLS  CLOUDY    42  36  79 N10G20    30.03F
OLIVIA         CLOUDY    41  36  81 N18       30.04R
PIPESTONE      CLOUDY    39  34  81 NE15G22   30.01R
WINDOM         CLOUDY    37  37 100 N17G23    30.00S FOG
WORTHINGTON    CLOUDY    36  35  96 N16       30.01R FOG
JACKSON        CLOUDY    36  36 100 N18       29.99R FOG
TRACY          CLOUDY    39  37  94 N15       30.03R
SLAYTON        CLOUDY    36  35  97 N15G22    30.02R FOG
$$
MNZ065>067-074>077-082>085-091>093-241800-
   South Central Minnesota

CITY           SKY/WX    TMP DP  RH WIND       PRES   REMARKS
MANKATO        CLOUDY    39  37  92 N15       30.00R
NEW ULM        CLOUDY    39  36  87 NE16      30.01R
ST JAMES       CLOUDY    39  37  93 N15       30.02R
FAIRMONT       CLOUDY    38  37  97 N17       29.98R FOG
GLENCOE        CLOUDY    40  40 100 N10       30.02R
FARIBAULT      DRIZZLE   39  37  93 N9        29.99R
OWATONNA       DRIZZLE   39  37  93 N7        29.98R
WASECA         CLOUDY    39  37  93 N12       30.00R FOG
ALBERT LEA     DRIZZLE   39  39 100 N12       29.95R
$$
MNZ078>079-086>088-094>096-241800-
   Southeast Minnesota

CITY           SKY/WX    TMP DP  RH WIND       PRES   REMARKS
ROCHESTER      LGT RAIN  39  38  96 N14       29.95R
RED WING       LGT RAIN  41  37  87 N7        29.99S
STANTON        DRIZZLE   40  37  91 N14       29.98S
DODGE CENTER   LGT RAIN  37  37 100 N12       29.96R
WINONA         LGT RAIN  41  37  87 N3        29.95F
AUSTIN         CLOUDY    39  37  93 NE10      29.94R
PRESTON        CLOUDY    39  38  94 N10       29.94R FOG
$$
ABBREVIATIONS USED IN REMARKS
   TC - TEMPERATURES IN CELSIUS
  WCI - WIND CHILL INDEX
   HX - HEAT INDEX
  VSB - VISIBILITY
$$




USA.gov is the U.S. government's official web portal to all federal, state and local government web resources and services.